Home   Weather   Springfield   Past weeks
Flag for USA

Past Weather in Springfield, Missouri, USA — Yesterday and Last 2 Weeks

Now
66 °F

More clouds than sun.


Feels Like: 66 °F
Forecast: 70 / 49 °F
Wind: 9 mph from North

Location: Springfield Regional Airport

Current Time: Oct 15, 2019 at 5:21:08 pm

Latest Report: Oct 15, 2019 at 4:29 pm


Visibility: 9 mi

Pressure: 29.89 "Hg

Humidity: 84%

Dew Point: 61 °F

Location of SpringfieldLocation

Past Weather in Springfield — Graph

°F

Springfield Temperature Yesterday

Maximum temperature yesterday: 74 °F (at 3:52 pm)
Minimum temperature yesterday: 42 °F (at 2:52 am)
Average temperature yesterday: 58 °F

High & Low Weather Summary for the Past Weeks

 TemperatureHumidityPressure
High90 °F (Oct 2, 1:52 pm)97% (Oct 7, 5:52 am)30.29 "Hg (Oct 7, 5:52 am)
Low31 °F (Oct 12, 5:52 am)29% (Oct 12, 12:52 pm)29.78 "Hg (Oct 10, 5:52 pm)
Average61 °F72%30.04 "Hg
* Reported Sep 30 4:52 pm — Oct 15 4:01 pm, Springfield. Weather by CustomWeather, © 2019

Note: Actual official high and low records may vary slightly from our data, if they occured in-between our weather recording intervals... More about our weather records

Advertising

Springfield Weather History for the Previous 24 Hours

Scroll right to see more
 ConditionsComfort  
Time TempWeatherWind HumidityBarometerVisibility
4:01 pm
Tue, Oct 15
67 °FMostly cloudy.13 mph85%29.88 "Hg10 mi
3:07 pm68 °FLight rain. Mostly cloudy.9 mph87%29.89 "Hg8 mi
3:00 pm69 °FMore clouds than sun.13 mph84%29.89 "Hg7 mi
2:34 pm70 °FLight rain. Mostly cloudy.6 mph84%29.89 "Hg7 mi
2:00 pm70 °FOvercast.7 mph81%29.89 "Hg10 mi
1:15 pm70 °FOvercast.9 mph79%29.90 "Hg10 mi
12:52 pm71 °FOvercast.10 mph78%29.87 "Hg10 mi
12:12 pm71 °FOvercast.6 mph76%29.91 "Hg10 mi
11:52 am69 °FOvercast.6 mph79%29.89 "Hg10 mi
11:29 am68 °FMore clouds than sun.7 mph82%29.92 "Hg10 mi
10:52 am67 °FLow clouds.7 mph85%29.90 "Hg9 mi
9:52 am65 °FLow clouds.8 mph87%29.90 "Hg9 mi
8:52 am63 °FLow clouds.10 mph87%29.89 "Hg10 mi
7:52 am62 °FLow clouds.9 mph86%29.89 "Hg10 mi
6:52 am61 °FLow clouds.7 mph87%29.90 "Hg10 mi
6:08 am60 °FLow clouds.9 mph83%29.92 "Hg10 mi
5:52 am60 °FOvercast.12 mph83%29.89 "Hg10 mi
5:31 am60 °FOvercast.10 mph80%29.92 "Hg10 mi
5:02 am60 °FLow clouds.9 mph80%29.92 "Hg10 mi
4:52 am60 °FOvercast.9 mph80%29.89 "Hg10 mi
3:52 am58 °FOvercast.9 mph81%29.90 "Hg10 mi
3:07 am57 °FPassing clouds.12 mph81%29.94 "Hg10 mi
2:52 am56 °FClear.9 mph81%29.91 "Hg10 mi
1:52 am57 °FClear.14 mph78%29.91 "Hg10 mi
12:52 am58 °FPassing clouds.15 mph72%29.92 "Hg10 mi
11:52 pm
Mon, Oct 14
59 °FClear.16 mph67%29.93 "Hg10 mi
10:52 pm60 °FClear.15 mph65%29.94 "Hg10 mi
9:52 pm62 °FClear.17 mph58%29.93 "Hg10 mi
8:52 pm63 °FClear.15 mph54%29.94 "Hg10 mi
7:52 pm64 °FClear.13 mph54%29.94 "Hg10 mi
6:52 pm65 °FClear.9 mph52%29.94 "Hg10 mi
5:52 pm70 °FSunny.10 mph44%29.94 "Hg10 mi
Weather by CustomWeather, © 2019

See weather overview